EW9248 Weather Reports


Display with metric or nautical units.
time (UTC)temp
F
wind
direction
speed
MPH
gust
MPH
rain 1hr
in
rain 24hr
in
rain mn
in
humidity
%
barometer
mb
20260831025815 66 0.0 0.0 0.00 0.00 0.00 86 1021.6
20260831024815 66 0.0 0.0 0.00 0.00 0.00 86 1021.5
20260831023815 66 0.0 0.0 0.00 0.00 0.00 86 1021.4
20260831022815 66 0.0 0.0 0.00 0.00 0.00 85 1021.4
20260831021815 66 0.0 0.0 0.00 0.00 0.00 84 1021.5
20260831020858 67 0.0 0.0 0.00 0.00 0.00 83 1021.4
20260831015857 67 0.0 0.0 0.00 0.00 0.00 83 1021.4
20260831014817 67 0.0 1.0 0.00 0.00 0.00 83 1021.4
20260831013838 67 0.0 0.0 0.00 0.00 0.00 83 1021.4
20260831012817 67 0.0 0.0 0.00 0.00 0.00 82 1021.3
20260831011857 68 0.0 0.0 0.00 0.00 0.00 82 1021.3
20260831010837 68 0.0 1.0 0.00 0.00 0.00 81 1021.2
20260831005816 68 0.0 2.0 0.00 0.00 0.00 81 1021.1
20260831004817 68 247 4.0 7.0 0.00 0.00 0.00 82 1021.0
20260831003857 67 292 1.0 8.0 0.00 0.00 0.00 85 1020.9
20260831002817 67 0.0 0.0 0.00 0.00 0.00 86 1020.8
20260831001816 67 0.0 0.0 0.00 0.00 0.00 86 1020.4
20260831000857 67 0.0 0.0 0.00 0.00 0.00 86 1020.2
20260830235816 68 0.0 0.0 0.00 0.00 0.00 85 1020.0
20260830234817 68 0.0 0.0 0.00 0.00 0.00 85 1019.9
20260830233837 68 0.0 0.0 0.00 0.00 0.00 85 1020.0
20260830232816 68 0.0 2.0 0.00 0.00 0.00 86 1019.9
20260830231816 68 0.0 0.0 0.00 0.00 0.00 86 1019.8
20260830230816 68 0.0 0.0 0.00 0.00 0.00 86 1019.9
20260830225836 68 0.0 0.0 0.00 0.00 0.00 85 1019.9
20260830224857 69 0.0 0.0 0.00 0.00 0.00 85 1020.0
20260830223836 69 0.0 0.0 0.00 0.00 0.00 85 1019.9
20260830222816 69 0.0 0.0 0.00 0.00 0.00 85 1019.9
20260830221816 69 0.0 0.0 0.00 0.00 0.00 84 1019.7
20260830220857 70 0.0 0.0 0.00 0.00 0.00 83 1019.8
20260830215838 70 0.0 0.0 0.00 0.00 0.00 82 1019.8
20260830214816 70 0.0 0.0 0.00 0.00 0.00 83 1019.7
20260830213837 70 0.0 0.0 0.00 0.00 0.00 81 1019.6
20260830212856 70 0.0 0.0 0.00 0.00 0.00 81 1019.7
20260830211837 70 0.0 0.0 0.00 0.00 0.00 80 1019.7
20260830210816 71 0.0 0.0 0.00 0.00 0.00 78 1019.9
20260830204816 71 247 1.0 3.0 0.00 0.00 0.00 78 1019.9
20260830203857 71 0.0 0.0 0.00 0.00 0.00 78 1019.8
20260830202836 71 0.0 0.0 0.00 0.00 0.00 78 1020.0
20260830201816 72 0.0 0.0 0.00 0.00 0.00 78 1019.9
20260830200816 72 0.0 0.0 0.00 0.00 0.00 75 1020.0
20260830195917 72 0 1.0 1.0 0.00 0.00 0.00 77 1019.8
20260830194816 72 0.0 1.0 0.00 0.00 0.00 76 1019.8
20260830192917 73 0.0 1.0 0.00 0.00 0.00 73 1019.8
20260830191836 73 180 1.0 3.0 0.00 0.00 0.00 72 1019.9
20260830190817 74 292 1.0 3.0 0.00 0.00 0.00 72 1020.0
20260830185856 75 0 1.0 4.0 0.00 0.00 0.00 73 1019.9
20260830184916 75 270 2.0 4.0 0.00 0.00 0.00 73 1019.8
20260830183836 74 247 1.0 2.0 0.00 0.00 0.00 78 1019.6
20260830182857 76 0.0 0.0 0.00 0.00 0.00 72 1019.7
20260830181816 77 225 2.0 3.0 0.00 0.00 0.00 70 1019.6
20260830180816 77 247 2.0 3.0 0.00 0.00 0.00 69 1019.7
20260830175856 77 247 3.0 4.0 0.00 0.00 0.00 69 1019.8
20260830174857 78 247 3.0 5.0 0.00 0.00 0.00 67 1020.0
20260830173936 78 202 3.0 5.0 0.00 0.00 0.00 68 1019.9
20260830172856 77 0.0 3.0 0.00 0.00 0.00 69 1020.1
20260830171857 78 202 1.0 3.0 0.00 0.00 0.00 67 1020.2
20260830170816 78 270 3.0 4.0 0.00 0.00 0.00 67 1020.2
20260830165856 77 247 3.0 3.0 0.00 0.00 0.00 68 1020.1
20260830164817 77 202 2.0 3.0 0.00 0.00 0.00 67 1020.5
20260830163836 77 247 3.0 4.0 0.00 0.00 0.00 67 1020.6
20260830162856 76 225 3.0 4.0 0.00 0.00 0.00 69 1020.5
20260830161837 75 202 2.0 2.0 0.00 0.00 0.00 70 1020.7
20260830160816 74 247 4.0 8.0 0.00 0.00 0.00 70 1020.9
20260830155836 74 247 4.0 7.0 0.00 0.00 0.00 71 1021.0
20260830154817 74 247 4.0 7.0 0.00 0.00 0.00 70 1021.0
20260830153836 74 270 2.0 4.0 0.00 0.00 0.00 72 1021.1
20260830152816 74 225 3.0 5.0 0.00 0.00 0.00 71 1021.2
20260830151857 73 247 3.0 4.0 0.00 0.00 0.00 73 1021.2
20260830150816 72 0.0 1.0 0.00 0.00 0.00 72 1021.1
20260830145836 71 202 1.0 2.0 0.00 0.00 0.00 73 1021.1
20260830144837 70 0.0 0.0 0.00 0.00 0.00 76 1021.3
20260830143816 69 0.0 0.0 0.00 0.00 0.00 78 1021.2
20260830142836 68 270 1.0 2.0 0.00 0.00 0.00 79 1021.3
20260830141816 67 0.0 1.0 0.00 0.00 0.00 80 1021.2
20260830140816 66 0.0 1.0 0.00 0.00 0.00 81 1021.0
20260830135815 66 0.0 0.0 0.00 0.00 0.00 83 1021.0
20260830134836 65 0.0 1.0 0.00 0.00 0.00 85 1021.2
20260830133856 63 0.0 0.0 0.00 0.00 0.00 87 1021.2
20260830132817 63 0.0 0.0 0.00 0.00 0.00 89 1021.4
20260830131815 62 0.0 0.0 0.00 0.00 0.00 90 1021.5
20260830130815 61 0.0 0.0 0.00 0.00 0.00 91 1021.5
20260830125816 60 0.0 0.0 0.00 0.00 0.00 91 1021.5
20260830124916 60 0.0 0.0 0.00 0.00 0.00 91 1021.7
20260830123856 60 0.0 0.0 0.00 0.00 0.00 92 1021.7
20260830122856 59 0.0 0.0 0.00 0.00 0.00 92 1021.7
20260830121815 59 0.0 0.0 0.00 0.00 0.00 92 1021.7
20260830120815 59 0.0 0.0 0.00 0.00 0.00 92 1021.8
20260830115956 58 0.0 0.0 0.00 0.00 0.00 92 1021.8
20260830114856 58 0.0 0.0 0.00 0.00 0.00 92 1021.8
20260830113856 57 0.0 0.0 0.00 0.00 0.00 92 1021.9
20260830112815 57 0.0 0.0 0.00 0.00 0.00 92 1022.1
20260830111815 57 0.0 0.0 0.00 0.00 0.00 92 1022.2
20260830110815 57 0.0 0.0 0.00 0.00 0.00 92 1022.3
20260830105815 56 0.0 0.0 0.00 0.00 0.00 92 1022.3
20260830104855 56 0.0 0.0 0.00 0.00 0.00 92 1022.3
20260830103916 56 0.0 0.0 0.00 0.00 0.00 92 1022.3
20260830102815 56 0.0 0.0 0.00 0.00 0.00 92 1022.1
20260830101839 56 0.0 0.0 0.00 0.00 0.00 91 1022.3
20260830100836 56 0.0 0.0 0.00 0.00 0.00 91 1022.5
20260830095815 56 0.0 0.0 0.00 0.00 0.00 91 1022.5
20260830094835 56 0.0 0.0 0.00 0.00 0.00 91 1022.8
20260830093815 56 0.0 0.0 0.00 0.00 0.00 91 1022.8
20260830092836 56 0.0 0.0 0.00 0.00 0.00 91 1022.9
20260830091835 57 0.0 0.0 0.00 0.00 0.00 91 1022.9
20260830090846 57 0.0 0.0 0.00 0.00 0.00 91 1023.0
20260830090135 57 0.0 0.0 0.00 0.00 0.00 91 1023.0
20260830084035 57 0.0 0.0 0.00 0.00 0.00 91 1023.0
20260830083035 57 0.0 0.0 0.00 0.00 0.00 91 1023.0
20260830082035 57 0.0 0.0 0.00 0.00 0.00 91 1023.2
20260830081036 58 0.0 0.0 0.00 0.00 0.00 91 1023.2
20260830080015 58 0.0 0.0 0.00 0.00 0.00 91 1023.2
20260830075055 58 0.0 0.0 0.00 0.00 0.00 91 1023.4
20260830074056 58 0.0 0.0 0.00 0.00 0.00 91 1023.3
20260830073035 58 0.0 0.0 0.00 0.00 0.00 91 1023.4
20260830072035 58 0.0 0.0 0.00 0.00 0.00 91 1023.4
20260830071035 58 0.0 0.0 0.00 0.00 0.00 91 1023.3
20260830070036 58 0.0 0.0 0.00 0.00 0.00 91 1023.3
20260830065015 58 0.0 0.0 0.00 0.00 0.00 91 1023.4
20260830064055 58 0.0 0.0 0.00 0.00 0.00 91 1023.3
20260830063018 58 0.0 0.0 0.00 0.00 0.00 90 1023.4
20260830062035 58 0.0 0.0 0.00 0.00 0.00 90 1023.3
20260830061155 58 0.0 0.0 0.00 0.00 0.00 90 1023.3
20260830060036 58 0.0 0.0 0.00 0.00 0.00 90 1023.1
20260830055015 58 0.0 0.0 0.00 0.00 0.00 90 1023.3
20260830054035 58 0.0 0.0 0.00 0.00 0.00 90 1023.4
20260830053036 58 0.0 0.0 0.00 0.00 0.00 90 1023.3
20260830052035 58 0.0 0.0 0.00 0.00 0.00 90 1023.3
20260830051136 58 0.0 0.0 0.00 0.00 0.00 90 1023.2
20260830050035 58 0.0 0.0 0.00 0.00 0.00 90 1023.3
20260830045015 58 0.0 0.0 0.00 0.00 0.00 90 1023.1
20260830044055 58 0.0 0.0 0.00 0.00 0.00 90 1023.3
20260830043015 58 0.0 0.0 0.00 0.00 0.00 90 1023.3
20260830042056 58 0.0 0.0 0.00 0.00 0.00 90 1023.3
20260830041015 58 0.0 0.0 0.00 0.00 0.00 90 1023.3
20260830040015 58 0.0 0.0 0.00 0.00 0.00 90 1023.1
20260830035015 58 0.0 0.0 0.00 0.00 0.00 90 1023.1
20260830034035 58 0.0 0.0 0.00 0.00 0.00 90 1023.0
20260830033035 57 0.0 0.0 0.00 0.00 0.00 90 1022.9
20260830032016 57 0.0 0.0 0.00 0.00 0.00 89 1023.0
20260830031015 57 0.0 0.0 0.00 0.00 0.00 89 1023.1